This is the latest recevied weather packets stored in our database for station/object KO6MEZ-13. If no packets are shown the sender has not sent any weather packets the latest 1 day(s).
| Time | Temp. | Humidity | Pressure | Rain* | Wind** | Luminosity | Snow |
|---|---|---|---|---|---|---|---|
| 1777980092 | 8.89° C | 94% | 1012.3 hPa | 0.25 mm | 0 m/s | 0 W/m² | - |
| 1777979793 | 9.44° C | 94% | 1012.4 hPa | 0.25 mm | 0 m/s | 0 W/m² | - |
| 1777979492 | 9.44° C | 94% | 1012.5 hPa | 0.25 mm | 0 m/s | 0 W/m² | - |
| 1777979194 | 9.44° C | 94% | 1012.5 hPa | 0.25 mm | 0 m/s | 0 W/m² | - |
| 1777978894 | 9.44° C | 94% | 1012.3 hPa | 0.25 mm | 0 m/s | 0 W/m² | - |
| 1777978721 | 9.44° C | 94% | 1012.3 hPa | 0.25 mm | 0 m/s | 0 W/m² | - |
| 1777978294 | 9.44° C | 94% | 1012.3 hPa | 0.51 mm | 0 m/s | 0 W/m² | - |
| 1777977993 | 9.44° C | 94% | 1012.3 hPa | 0.51 mm | 0 m/s | 0 W/m² | - |
| 1777977693 | 9.44° C | 94% | 1012.4 hPa | 0.25 mm | 0 m/s | 0 W/m² | - |
| 1777977393 | 9.44° C | 94% | 1012.4 hPa | 0.51 mm | 0 m/s | 0 W/m² | - |
| 1777977220 | 9.44° C | 94% | 1012.3 hPa | 0.51 mm | 0 m/s | 0 W/m² | - |
| 1777976793 | 9.44° C | 94% | 1012.5 hPa | 0.51 mm | 0 m/s | 0 W/m² | - |
| 1777976492 | 9.44° C | 94% | 1012.5 hPa | 0.51 mm | 0 m/s | 0 W/m² | - |
| 1777976194 | 9.44° C | 94% | 1012.5 hPa | 0.51 mm | 0 m/s | 0 W/m² | - |
| 1777975894 | 9.44° C | 94% | 1012.6 hPa | 0.76 mm | 0 m/s | 0 W/m² | - |
| 1777975594 | 9.44° C | 94% | 1012.7 hPa | 0.76 mm | 0 m/s | 0 W/m² | - |
| 1777975420 | 9.44° C | 94% | 1012.7 hPa | 1.02 mm | 0 m/s | 0 W/m² | - |
| 1777974994 | 9.44° C | 94% | 1012.7 hPa | 1.02 mm | 0 m/s | 0 W/m² | - |
| 1777974693 | 9.44° C | 94% | 1012.8 hPa | 1.02 mm | 0 m/s | 0 W/m² | - |
| 1777974393 | 9.44° C | 94% | 1012.8 hPa | 1.52 mm | 0 m/s | 0 W/m² | - |
| 1777974092 | 9.44° C | 94% | 1012.8 hPa | 1.78 mm | 0 m/s | 0 W/m² | - |
| 1777973919 | 9.44° C | 94% | 1012.7 hPa | 1.78 mm | 0 m/s | 0 W/m² | - |
| 1777973492 | 9.44° C | 94% | 1012.8 hPa | 1.78 mm | 0 m/s | 0 W/m² | - |
| 1777973193 | 9.44° C | 94% | 1012.8 hPa | 2.03 mm | 0 m/s | 0 W/m² | - |
| 1777973022 | 9.44° C | 94% | 1012.9 hPa | 2.03 mm | 0 m/s | 0 W/m² | - |
* Rain latest hour (hover to see other rain measurements)
** Current wind speed in m/s (hover to see current wind gust speed)